NOAA 16 DEB, 41236

Orbit data source: Space-Track

NOAA 16 DEB, 41236 is space debris in SSO originally from a launch on Thu, 21 Sep 2000 UTC launched from the Air Force Western Test Range (AFWTR). Debris objects in space refer to the collection of defunct objects orbiting the Earth. Examples of debris include non-operational satellites, rocket bodies, and fragments generated from explosions, collisions, or faulty payload assembly.

Loading next visibility...
Identifier
41236, 2000-055ER
Orbit
SSO
Country
Flag of USUS
Related business
Manufacturer
Unknown
Mission
Spacecraft
Bus & Motor
Unknown
Mass
Unknown
Launch date (UTC)
2000-09-21 (25 years ago)
Launch vehicle
Unknown
Launch site
Air Force Western Test Range (AFWTR)
Object type
Payload
Rocket body
Debris
Shape & HBR
Unknown shape, 0.1 m
Radar Cross Section
Small (<0.1 m²)

Expand to show TLE details & history
Last TLE update: 10 hours ago

TLE from 10 hours ago
0 NOAA 16 DEB
1 41236U 00055ER  25343.12732002  .00011367  00000-0  30525-2 0  9995
2 41236  99.0613 220.5027 0034150 319.9361  39.9312 14.47921345520205
Epoch: 2025-12-09T03:03Z
TLE epoch observation values (Epoch: 2025-12-09T03:03:20.449Z)
Latitude
0.00001°
Longitude
96.55103°
Altitude
716.797 km
Speed
7.507 km/s
True Right ascension
14h 42m 00s
True Declination
0° 00' 00"
Sunlit
Object was in daylight at epoch
Visualization orbit readout
Latitude
Unknown
Longitude
Unknown
Altitude
Unknown
Speed
Unknown
Apparent Right ascension
Unknown
Apparent Declination
Unknown
Sunlit
N/A
Visualization observer readout
Local Sidereal Time
10:53:35
Azimuth
Unknown
Elevation
Unknown
Doppler factor
Unknown
Orbital elements
Apogee altitude
753.857 km
Perigee altitude
705.312 km
Semi-major axis
7,107.721 km
Eccentricity
0.00342
Inclination
99.0613°
RAAN
220.5027°
Arg. of periapsis
319.9361°
True anomaly
40.18321°
Mean anomaly
39.9312°
Eccentric anomaly
40.05712°
Mean motion
3.62199 °/min
Orbital period
99.39 mins
BSTAR
0.0030525
Loading maneuver chart data...
Computing Atmospheric mass density...
Loading historical data...
Loading historical data...
Loading historical data...
Loading historical data...
Loading historical data...
Loading historical data...
Loading historical data...

Documentation

Showing up to 5 results
|